DELTA 1 DEB, 21467

Orbit data source: Space-Track

DELTA 1 DEB, 21467 is space debris in SSO originally from a launch on Thu, 12 Jun 1975 UTC launched from the Air Force Western Test Range (AFWTR). Debris objects in space refer to the collection of defunct objects orbiting the Earth. Examples of debris include non-operational satellites, rocket bodies, and fragments generated from explosions, collisions, or faulty payload assembly.

Loading next visibility...
Identifier
21467, 1975-052FB
Orbit
SSO
Country
Flag of USUS
Related business
Manufacturer
Unknown
Mission
Spacecraft
Bus & Motor
Unknown
Mass
Unknown
Launch date (UTC)
1975-06-12 (51 years ago)
Launch vehicle
Unknown
Launch site
Air Force Western Test Range (AFWTR)
Object type
Payload
Rocket body
Debris
Shape & HBR
Unknown shape, 0.1 m
Radar Cross Section
Small (<0.1 m²)

Expand to show TLE details & history
Last TLE update: 16 hours ago

TLE from 16 hours ago
0 DELTA 1 DEB
1 21467U 75052FB  25350.94286455  .00000214  00000-0  40331-3 0  9998
2 21467  99.7086 150.5759 0025882 334.5868 155.0428 13.50163746703501
Epoch: 2025-12-16T22:37Z
TLE epoch observation values (Epoch: 2025-12-16T22:37:43.497Z)
Latitude
49.36551°
Longitude
-83.23484°
Altitude
1,096.857 km
Speed
7.3 km/s
True Right ascension
22h 48m 03s
True Declination
49° 12' 11"
Sunlit
Object was in daylight at epoch
Visualization orbit readout
Latitude
Unknown
Longitude
Unknown
Altitude
Unknown
Speed
Unknown
Apparent Right ascension
Unknown
Apparent Declination
Unknown
Sunlit
N/A
Visualization observer readout
Local Sidereal Time
13:03:44
Azimuth
Unknown
Elevation
Unknown
Doppler factor
Unknown
Orbital elements
Apogee altitude
1,088.232 km
Perigee altitude
1,049.683 km
Semi-major axis
7,447.095 km
Eccentricity
0.00259
Inclination
99.7086°
RAAN
150.5759°
Arg. of periapsis
334.5868°
True anomaly
155.16758°
Mean anomaly
155.0428°
Eccentric anomaly
155.10522°
Mean motion
3.37725 °/min
Orbital period
106.6 mins
BSTAR
0.00040331
Loading maneuver chart data...
Computing Atmospheric mass density...
Loading historical data...
Loading historical data...
Loading historical data...
Loading historical data...
Loading historical data...
Loading historical data...
Loading historical data...

Documentation

Showing up to 5 results
|